User: anonymous   Login
Location: Boiro
(42.6475°N, 8.8834°W)
Time: 05:35:07
(UTC+01:00)
Language:

AO-91 - Orbit

View from above orbital plane
View from above orbital plane
View from above satellite
View from above satellite

Ground track
Ground track

The orbit data is extracted from the following two-line orbital elements,

1 43017U 17073E   22026.67161520  .00002630  00000-0  20624-3 0  9991
2 43017  97.6907 286.6418 0251258 291.8004  65.6648 14.80253360226138
Epoch (UTC): 26 January 2022 16:07:07
Eccentricity: 0.0251258
inclination: 97.6907°
perigee height: 452 km
apogee height: 804 km
right ascension of ascending node: 286.6418°
argument of perigee: 291.8004°
revolutions per day: 14.80253360
mean anomaly at epoch: 65.6648°
orbit number at epoch: 22613

The dashed part of the orbit path shows where the satellite is in the earth's shadow,  

DLR